Flag for El Salvador Weather past 2 weeks in San Salvador, El Salvador

Now
81 °F

Sunny.


Feels Like: 85 °F
Forecast: 68 / 86 °F
Wind: 12 mph from North

Location: San Salvador / Ilopango

Current Time: Jul 29, 2014 at 11:04:09 AM

Latest Report: Jul 29, 2014 at 9:50 AM


Visibility: 10 mi

Pressure: 30.04 "Hg

Humidity: 74%

Dew point: 72 °F

Location of San SalvadorLocation

Historic Weather in San Salvador — Graph

°F

San Salvador temperature yesterday

Maximum temperature yesterday: 90 °F (at 1:50 PM)
Minimum temperature yesterday: 70 °F (at 5:50 AM)
Average temperature yesterday: 77 °F

Past Weeks' High & Low Weather Summary

 TemperatureHumidityPressure
High91 °F (Jul 21, 1:50 PM)100% (Jul 14, 11:50 PM)30.07 "Hg (Jul 14, 11:50 PM)
Low68 °F (Jul 27, 5:50 AM)49% (Jul 20, 12:50 PM)29.86 "Hg (Jul 26, 7:50 PM)
Average80 °F77%29.99 "Hg
* Reported Jul 14 10:50 AM — Jul 29 9:50 AM, San Salvador, Weather by CustomWeather, © 2014

Note: Actual official high and low records may vary slightly from our data, if they occured in-between our weather recording intervals... More about our weather records

Advertising

San Salvador weather history for previous 24 hours

 ConditionsComfort  
Time TempWeatherWind HumidityBarometerVisibility
9:50 AM
Jul 29
81 °FSunny.12 mph74%30.04 "Hg10 mi
8:50 AM73 °FSunny.7 mph94%30.07 "Hg10 mi
7:50 AM72 °FSunny.5 mph94%30.07 "Hg10 mi
6:50 AM72 °FScattered clouds.5 mph94%30.07 "HgN/A
5:50 AM70 °FDrizzle. Partly sunny.5 mph94%30.04 "HgN/A
11:50 PM
Jul 28
70 °FPassing clouds.3 mph94%30.07 "HgN/A
10:50 PM70 °FPassing clouds.2 mph94%30.07 "HgN/A
9:50 PM70 °FPassing clouds.3 mph94%30.07 "HgN/A
8:50 PM70 °FPassing clouds.No wind94%30.07 "HgN/A
7:50 PM70 °FThunderstorms. Passing clouds.5 mph94%30.04 "Hg4 mi
6:50 PM73 °FThunderstorms. Passing clouds.3 mph94%29.98 "HgN/A
5:50 PM72 °FRain. Passing clouds.No wind94%29.98 "HgN/A
4:50 PM73 °FThunderstorms. Scattered clouds.2 mph94%29.98 "HgN/A
3:50 PM82 °FThundershowers. Broken clouds.9 mph74%29.95 "Hg6 mi
2:50 PM90 °FScattered showers. Partly sunny.7 mph59%29.95 "HgN/A
1:50 PM90 °FScattered clouds.9 mph59%29.98 "HgN/A
12:50 PM88 °FPassing clouds.9 mph62%30.01 "HgN/A
11:50 AM88 °FSunny.12 mph62%30.01 "Hg10 mi
Weather by CustomWeather, © 2014

See weather overviewHow to use our weather pages